RH
79 73 63 54 62 63 61 61 54 51 43 36 31 28 21 16 15 19 24 26 28 29 20 10 7 6 7 8 7 7 6 6 6 6 6 7 8 11 12 14 14 17 14 10
65 68 66 66 58 53 55 50 40 33 30 29 26 20 18 20 29 27 30 31 21 9 6 6 7 8 8 8 7 7 6 6 6 5 6 6 7 9 11 15 14 16 21 14
80 73 59 60 56 51 41 34 34 30 27 24 21 22 30 42 35 31 28 20 8 6 6 7 9 8 8 8 7 7 6 6 5 5 5 5 5 7 9 11 14 17 20 18
58 59 54 47 42 33 41 48 36 28 31 30 39 42 46 35 28 21 13 8 6 7 8 9 8 8 8 8 8 8 6 5 5 4 4 4 4 5 6 9 11 14 20 23
47 39 41 37 46 59 52 48 42 35 34 43 41 38 33 24 14 9 7 7 8 10 10 8 9 9 9 10 10 9 6 5 5 4 4 5 4 5 5 6 8 10 13 18
46 56 63 59 51 48 46 43 38 38 40 38 32 27 19 13 9 8 8 9 11 11 9 10 10 10 10 11 11 12 8 5 5 5 5 5 5 5 5 5 6 8 10 12
69 54 42 39 46 44 38 37 30 27 21 14 11 12 10 9 8 10 12 12 12 10 11 12 12 12 11 13 14 14 9 6 6 5 6 6 6 6 6 6 5 6 9 11
39 38 49 48 41 36 31 29 23 16 9 10 11 10 10 12 13 15 15 12 11 11 13 13 14 12 13 14 16 16 12 7 6 5 6 6 7 6 6 6 6 6 6 10
90 70 56 37 29 29 28 16 9 8 8 10 10 10 11 17 18 16 13 11 12 14 15 17 15 14 14 15 19 19 16 9 6 6 6 7 8 8 6 6 6 6 6 7
63 48 32 29 28 29 21 10 9 9 10 10 11 15 23 21 18 14 12 13 16 18 21 20 18 16 15 17 19 20 18 12 7 6 6 6 8 6 7 7 6 7 7 6
45 30 24 26 28 18 10 9 10 10 12 13 17 24 24 19 14 13 14 17 22 25 26 24 20 19 17 18 18 20 20 14 10 6 6 6 7 4 5 6 8 7 7 7
32 25 22 26 23 14 10 11 12 13 18 24 30 26 21 15 14 16 19 25 30 33 32 27 24 22 18 18 19 21 20 17 12 7 6 6 7 5 4 4 5 8 8 7
25 23 23 25 16 11 11 14 16 19 30 33 28 21 15 14 15 16 20 29 39 38 38 32 30 25 20 20 22 22 21 18 13 9 6 6 7 6 4 4 4 6 8 8
23 24 28 26 15 12 15 16 23 33 37 29 26 20 14 14 16 19 24 32 45 51 44 36 34 27 22 22 24 23 21 20 14 10 6 6 6 6 4 4 4 4 7 8
29 26 27 16 13 16 16 21 35 44 31 28 21 17 15 15 17 22 28 40 54 57 47 42 39 30 25 26 28 25 20 20 17 11 7 6 6 6 5 5 5 5 5 7
31 28 17 14 18 18 27 38 44 47 30 22 18 16 17 17 17 23 34 49 61 56 51 50 42 29 27 33 29 25 21 20 18 12 8 5 5 6 6 5 6 6 5 4
30 18 16 22 20 26 38 46 50 34 24 18 17 16 18 18 20 25 38 53 60 62 58 58 42 30 34 35 30 25 22 21 18 13 10 6 5 6 6 5 5 6 6 5
23 15 20 23 28 39 47 52 41 26 20 18 16 17 18 19 24 26 38 58 70 60 68 56 36 37 39 35 31 26 22 21 19 14 10 6 5 5 6 6 5 5 6 5
18 18 22 24 44 50 56 50 31 25 20 18 16 17 18 19 25 34 53 67 69 59 70 49 40 45 39 35 31 28 26 23 19 15 12 8 5 5 6 6 6 5 6 6
18 23 25 28 56 62 57 44 31 24 19 16 16 16 20 22 25 31 62 67 63 70 62 44 49 42 39 38 35 35 28 24 20 16 12 9 6 5 5 6 7 6 6 6
22 26 28 48 69 66 58 40 28 22 18 17 17 19 22 25 31 42 62 66 68 73 46 53 44 45 42 43 43 40 36 29 21 16 12 10 8 6 4 5 6 7 6 6
28 30 37 70 71 64 56 34 25 19 18 18 18 21 24 29 36 59 66 65 73 49 56 47 51 51 60 58 51 49 41 32 26 19 16 11 9 6 5 4 6 6 7 6
33 37 58 69 66 66 39 32 22 20 19 18 20 23 28 34 44 64 62 67 52 54 50 56 64 65 64 66 58 61 48 48 39 25 16 14 9 7 5 5 4 6 7 6
38 60 80 77 76 44 42 25 22 21 19 18 23 26 32 36 61 64 64 51 52 55 56 61 70 75 77 70 76 72 65 54 45 36 23 16 10 8 6 5 4 5 6 7
40 73 77 83 72 48 30 23 22 18 17 23 31 32 36 53 66 58 46 50 57 56 64 70 74 80 85 84 86 85 79 70 53 51 32 18 13 9 8 6 4 4 5 6
53 75 82 92 56 35 28 21 18 17 20 27 31 35 44 64 59 42 48 54 57 61 78 78 83 88 82 90 94 95 93 85 69 60 40 25 17 10 8 7 6 4 4 5
Wind_Speed
91 90 89 91 91 92 95 97 98 101 103 105 107 109 111 114 114 108 106 107 110 115 114 112 108 106 104 102 102 102 101 99 96 92 88 86 85 87 84 80 73 71 70 66
89 89 88 89 89 91 91 94 97 100 101 102 105 107 109 107 104 105 105 108 110 105 104 104 106 102 100 100 100 98 96 94 91 86 83 80 78 81 84 83 79 72 69 66
88 89 89 89 89 91 94 95 97 100 101 100 103 104 99 97 100 103 104 104 103 103 101 104 98 96 94 91 91 92 89 86 84 82 81 79 75 75 76 81 83 78 72 68
84 87 87 88 87 89 92 96 95 95 93 97 95 94 97 97 99 98 97 96 97 99 100 94 92 89 85 84 84 84 81 77 74 72 71 71 70 69 69 73 79 82 79 74
82 80 80 82 86 89 93 84 86 88 88 89 90 92 94 93 90 90 90 93 96 95 90 89 86 81 80 78 78 79 73 69 64 61 61 61 62 62 62 63 70 77 82 79
83 82 80 80 82 78 78 77 78 81 86 87 90 92 90 85 86 89 90 91 89 85 87 85 79 77 79 77 73 72 71 63 59 54 53 54 56 57 58 59 62 71 77 82
85 80 79 75 70 68 72 73 79 80 83 85 87 84 79 80 85 86 85 85 82 84 82 78 76 77 79 78 72 68 62 60 53 49 45 45 51 53 53 56 58 64 73 80
69 66 64 65 65 69 74 75 77 76 78 75 74 73 76 78 80 80 79 80 82 80 79 75 76 75 79 75 70 68 63 56 52 47 43 42 45 48 47 50 55 59 66 77
58 63 64 64 64 65 66 67 70 68 70 67 69 71 74 72 73 75 77 79 78 77 76 75 76 76 78 72 66 65 63 56 52 46 41 39 39 42 43 44 49 54 62 71
59 62 59 59 61 63 64 63 65 64 66 67 66 65 62 65 71 75 76 76 75 74 74 75 75 76 77 70 63 62 62 56 51 47 42 37 33 34 37 39 44 48 57 66
61 62 59 59 60 59 62 62 63 60 61 62 60 57 61 67 71 73 72 72 71 71 73 72 73 75 75 69 62 61 62 55 50 47 41 37 29 27 30 33 38 45 51 61
62 59 57 60 59 60 59 58 55 57 54 51 52 59 61 67 69 68 69 68 69 69 68 70 72 73 74 69 64 61 62 58 50 47 40 35 30 26 27 31 34 41 47 57
54 56 56 58 59 59 55 53 51 48 44 45 50 58 62 63 64 65 66 65 67 68 67 68 70 73 73 69 65 63 63 60 52 46 40 33 30 26 27 29 32 37 45 52
55 54 55 59 60 58 49 46 45 40 41 46 52 58 62 62 64 65 66 66 65 67 65 66 70 73 73 69 65 65 66 63 57 48 40 33 28 25 23 25 29 34 42 49
50 53 56 56 53 49 44 42 38 38 41 48 54 59 60 62 62 64 64 64 63 65 63 66 69 73 71 70 68 67 67 63 58 51 43 33 28 24 22 24 27 32 39 47
50 51 53 52 47 42 36 34 35 39 44 50 55 58 61 63 61 62 62 61 61 62 63 66 70 72 70 69 69 68 68 65 60 52 45 36 28 24 20 21 24 29 34 43
45 47 50 45 42 34 32 33 35 38 45 50 55 57 60 59 61 59 59 58 58 60 62 65 70 70 68 68 69 68 68 65 61 54 46 39 29 24 20 18 22 27 31 41
46 46 43 39 34 31 31 34 36 39 45 52 57 57 57 58 58 59 57 56 57 58 60 64 68 67 66 67 69 69 69 67 63 54 47 40 32 25 21 18 20 23 26 36
43 45 40 38 31 30 31 34 37 42 48 54 56 56 57 57 54 54 54 51 53 56 59 64 64 63 64 66 68 70 70 68 65 58 50 41 35 26 22 19 18 19 23 30
42 41 39 33 29 30 30 33 40 44 50 54 55 55 56 56 54 50 46 48 50 52 58 61 60 60 62 64 66 68 69 70 66 60 52 44 36 30 23 20 17 18 21 25
40 40 38 29 27 30 30 35 40 45 50 54 55 56 56 54 52 48 45 45 49 52 56 55 56 58 61 62 64 68 68 70 69 62 54 47 37 32 26 22 19 18 20 23
40 37 31 27 28 29 32 36 41 46 51 53 55 55 53 51 48 44 43 45 46 50 49 50 53 55 58 61 64 67 70 71 71 67 59 52 42 33 29 24 21 19 19 23
38 32 28 27 26 29 32 38 43 49 52 54 54 53 50 48 42 39 39 40 45 44 45 46 50 53 60 63 69 72 71 75 74 70 63 56 47 37 29 26 22 21 19 22
36 28 26 26 26 29 33 39 45 50 55 55 54 52 46 41 36 35 35 39 38 37 40 48 52 59 64 69 75 76 79 78 77 74 68 60 52 43 36 27 24 21 21 21
31 27 26 27 27 30 34 41 47 53 55 53 51 49 38 32 31 31 33 33 30 36 43 48 55 61 67 73 78 79 83 83 81 82 77 65 57 48 40 34 28 23 21 21
28 25 24 27 27 30 36 42 50 53 54 55 50 36 27 26 27 27 26 23 31 37 45 50 55 60 66 72 78 82 84 87 89 86 80 75 64 54 45 36 30 28 23 21
Wind_Direction
268 272 273 276 280 283 287 288 290 291 292 294 296 295 300 300 302 303 301 300 301 301 301 301 301 303 303 303 301 298 295 293 291 286 280 274 270 267 266 263 258 256 254 250
273 273 277 280 283 286 288 290 291 293 296 297 299 299 299 302 301 302 300 299 301 302 302 305 307 308 306 303 301 299 297 295 292 288 281 275 268 262 258 256 255 251 249 246
274 277 279 281 285 286 289 291 294 297 299 300 301 303 300 296 297 297 300 301 302 304 305 307 308 307 305 305 303 301 299 298 292 287 283 279 273 264 257 253 249 247 245 243
275 278 280 282 286 290 292 295 297 299 299 298 297 295 293 295 299 300 302 303 304 305 307 308 307 308 310 308 307 305 304 299 295 290 285 279 275 268 259 250 247 243 239 237
281 282 286 289 290 292 294 293 296 296 296 294 294 295 295 299 301 302 303 304 304 308 310 309 312 316 317 316 314 312 309 306 299 290 283 278 273 267 260 252 244 241 236 233
281 286 288 288 288 289 289 292 294 294 292 293 295 297 299 301 302 303 303 304 308 311 312 313 317 320 323 324 321 320 315 310 302 294 285 278 271 265 259 253 243 237 234 231
284 283 285 285 286 289 293 291 293 294 297 299 299 299 299 300 301 303 306 311 313 312 312 316 321 325 329 328 326 326 320 314 307 298 289 280 272 266 257 251 244 236 230 226
284 284 283 289 292 291 290 291 294 297 298 298 297 300 300 302 303 308 312 313 313 313 315 321 324 328 333 331 331 332 329 320 314 305 296 287 276 267 259 250 243 234 228 224
284 291 290 291 292 291 294 298 299 299 298 295 297 301 302 307 311 314 314 315 315 316 320 324 325 332 333 334 335 337 336 327 319 311 303 293 280 270 261 249 241 234 227 223
289 292 293 292 293 296 300 300 300 297 296 296 300 303 308 312 313 314 317 318 318 321 324 325 330 331 334 335 336 341 340 335 323 316 310 302 287 274 263 251 240 231 226 222
288 291 295 297 298 302 301 301 296 294 298 301 304 306 312 314 314 315 318 319 323 324 327 328 331 332 335 336 338 343 344 341 331 323 316 309 296 277 264 253 243 229 223 219
287 292 295 297 301 302 300 298 296 298 302 304 308 313 315 316 318 319 321 323 326 328 328 332 333 334 337 338 341 345 346 345 340 330 321 314 302 279 265 254 244 231 220 218
291 292 296 299 304 303 298 297 301 302 303 308 315 317 317 318 320 322 324 327 327 329 334 335 335 337 339 341 343 345 348 347 344 337 328 319 308 291 268 255 241 233 218 214
292 295 299 303 303 302 298 301 301 301 305 314 315 316 317 318 321 324 326 328 329 331 333 337 337 339 341 343 344 347 348 349 347 342 335 325 314 297 276 254 245 232 223 212
293 296 301 304 299 297 301 302 300 302 310 317 318 317 319 320 323 327 329 330 332 331 336 340 340 341 342 345 346 348 348 349 348 346 340 331 320 305 282 254 244 236 228 217
295 302 302 299 297 300 300 296 298 307 314 319 317 319 319 321 326 329 331 332 332 334 340 341 342 343 344 346 346 347 349 349 349 349 345 338 327 313 293 258 243 237 231 226
301 304 297 299 300 302 293 292 303 313 320 320 320 320 321 325 328 332 332 332 334 338 341 341 343 344 345 346 346 348 351 352 352 352 349 342 334 319 301 272 247 246 240 231
303 302 301 301 299 289 287 295 309 319 321 322 322 322 324 326 329 331 332 333 336 340 342 343 344 346 346 346 346 350 351 355 354 353 353 346 340 325 311 290 260 252 241 232
305 301 297 299 287 283 290 305 313 317 322 323 323 325 327 327 330 331 331 335 337 342 343 345 345 346 347 348 348 351 352 355 356 355 353 352 342 333 317 302 278 261 242 233
299 297 297 295 277 283 295 309 314 317 321 323 326 328 327 327 330 332 332 337 339 344 345 346 346 348 350 351 351 353 354 355 358 358 355 355 348 339 324 311 291 271 253 239
294 297 296 278 275 286 300 309 315 318 322 326 329 327 326 329 331 335 337 340 346 348 347 348 350 353 354 355 356 358 357 358 359 360 358 357 354 345 333 316 302 280 262 250
298 299 284 270 279 292 304 311 315 321 323 325 328 330 329 331 334 337 341 346 349 347 350 352 355 359 3 3 2 3 4 3 1 3 1 358 355 352 341 325 307 290 268 254
301 289 272 271 284 298 307 312 318 320 323 329 329 328 330 332 336 340 344 349 349 352 356 4 9 15 13 14 13 12 11 10 6 5 4 0 357 353 347 334 316 298 279 259
295 273 268 277 288 302 309 315 317 319 325 326 327 328 331 334 338 343 350 351 356 4 19 22 21 20 21 18 18 17 15 13 12 9 6 3 360 356 348 342 326 308 290 270
282 265 266 281 296 304 312 316 319 324 325 327 325 328 331 337 341 348 353 2 19 24 24 24 24 23 23 21 21 18 17 14 14 13 8 6 3 359 356 345 334 318 300 281
266 258 271 286 300 308 315 320 323 326 327 327 325 324 336 342 346 350 9 28 24 27 28 26 24 23 21 21 19 18 17 16 15 14 11 8 5 2 358 353 342 327 312 292